Regional Weather Roundup
Issued by NWS

Home | Current Version | Previous Version | Graphics & Text | Print | Product List | Glossary Off
Versions: 1 2 3 4 5 6 7 8 9 10 11 12 13 14 15 16 17 18 19 20 21 22 23 24 25 26 27 28 29 30 31 32 33 34 35 36 37 38 39 40 41 42 43 44 45 46 47 48 49 50

000
ASUS43 KMPX 301710
RWRMN
WEATHER ROUNDUP FOR MINNESOTA
NATIONAL WEATHER SERVICE TWIN CITIES/CHANHASSEN MN
1200 PM CDT TUE AUG 30 2016


NOTE: "FAIR" INDICATES FEW OR NO CLOUDS BELOW 12,000 FEET WITH NO
SIGNIFICANT WEATHER AND/OR OBSTRUCTIONS TO VISIBILITY. N/A MEANS
CURRENT SKY AND/OR WEATHER CONDITIONS ARE NOT AVAILABLE.

MNZ060>063-068>070-301800-
   Twin Cities Metro

CITY           SKY/WX    TMP DP  RH WIND       PRES   REMARKS
TWIN CITIES    CLOUDY    75  61  61 N8        30.20S
ST PAUL        CLOUDY    74  63  68 N8        30.20S
CRYSTAL        CLOUDY    74  61  63 N7        30.19S
BLAINE         PTSUNNY   73  64  73 N6        30.20S
LAKEVILLE      CLOUDY    73  64  73 NW7       30.20S
EDEN PRAIRIE   CLOUDY    75  63  66 N5        30.19F
LAKEVILLE      CLOUDY    73  64  73 NW7       30.20S
SOUTH ST PAUL  PTSUNNY   74  61  62 NW5       30.19S
LAKE ELMO      FAIR      72  64  78 N5        30.21S
$$
MNZ001>005-007-008-013>017-022>024-027-028-301800-
   Northwest Minnesota

CITY           SKY/WX    TMP DP  RH WIND       PRES   REMARKS
BEMIDJI        SUNNY     69  50  49 N8        30.25R
HALLOCK        SUNNY     72  48  43 CALM      30.25S
ROSEAU         SUNNY     72  54  53 NW7       30.25S
WARROAD        SUNNY     68  54  60 W8        30.25S
THIEF RVR FALL SUNNY     70  52  52 NW8       30.26F
CROOKSTON      SUNNY     72  54  53 W6        30.26S
FOSSTON        SUNNY     72  52  49 NW7       30.26F
DETROIT LAKES  SUNNY     70  52  52 NW7       30.27S
MOORHEAD       SUNNY     73  48  40 CALM      30.25F
MAHNOMEN       FAIR      69  56  62 NW7       30.26S
$$
MNZ006-009>011-018-025>026-301800-
   North Central Minnesota

CITY           SKY/WX    TMP DP  RH WIND       PRES   REMARKS
BAUDETTE       SUNNY     69  50  50 NW12      30.23S
FLAG ISLAND    SUNNY     66  45  45 W6        30.22R HAZE
INTL FALLS     SUNNY     69  49  48 NW7       30.20F
WASKISH          N/A     70  54  56 W6        30.24S
BIG FORK       SUNNY     68  48  49 NW5       30.22F
LONGVILLE      SUNNY     70  52  52 N6        30.23S
GRAND RAPIDS   SUNNY     68  52  56 NW9G16    30.24S
ORR            SUNNY     66  46  48 NW9       30.19S
COOK           SUNNY     66  52  59 W12       30.21S
WALKER         FAIR      68  51  52 N8        30.24S
$$
MNZ012-019>021-037-301800-
   Northeast Minnesota

CITY           SKY/WX    TMP DP  RH WIND       PRES   REMARKS
DULUTH         SUNNY     71  55  56 NW6       30.19F
ELY            SUNNY     66  46  48 N6        30.19S
HIBBING        SUNNY     67  50  54 NW8       30.21S
EVELETH        SUNNY     67  50  53 NW7       30.21S
DULUTH HARBOR  SUNNY     70  59  68 E6        30.19S
TWO HARBORS    SUNNY     73  55  53 CALM      30.16S
SILVER BAY     SUNNY     73  52  46 N3        30.15F
GRAND MARAIS     N/A     67  47  48 SW10      30.13F
G MARAIS ARPRT SUNNY     66  46  48 W3        30.18S
$$
MNZ029>031-032-039>041-046>048-054>057-064-301800-
   West Central Minnesota

CITY           SKY/WX    TMP DP  RH WIND       PRES   REMARKS
FERGUS FALLS   SUNNY     73  54  49 N5        30.25S
WHEATON        SUNNY     75  55  50 N6        30.25S
MORRIS         SUNNY     75  55  50 N5        30.23S
ALEXANDRIA     MOSUNNY   74  47  38 N5        30.25F
ELBOW LAKE     FAIR      72  54  52 NW6       30.24F
WADENA         SUNNY     72  50  46 NW7       30.24S
GLENWOOD       MOSUNNY   70  54  56 NE7       30.25S
APPLETON       MOSUNNY   75  57  53 NE7       30.23R
BENSON         MOSUNNY   75  52  43 E6        30.23S
ORTONVILLE     MOSUNNY   73  57  56 CALM      30.24S
MADISON        MOSUNNY   73  61  64 NE5       30.23S
WILLMAR        FAIR      73  59  60 N8        30.25R
$$
MNZ033>034-036-042>043-049>051-058-059-301800-
   Central Minnesota

CITY           SKY/WX    TMP DP  RH WIND       PRES   REMARKS
ST CLOUD       PTSUNNY   72  59  63 N7        30.22S
SAUK CENTRE    FAIR      70  52  53 NE8       30.24S
PAYNESVILLE    CLOUDY    72  51  48 N5        30.24S
AITKIN         SUNNY     73  48  40 N8        30.21S
PINE RIVER     SUNNY     70  52  52 N5        30.25F
BRAINERD       SUNNY     71  50  47 N8        30.23S
STAPLES        SUNNY     72  48  43 NE5       30.23F
LONG PRAIRIE   FAIR      70  50  49 N5        30.24F
LITTLE FALLS   MOSUNNY   70  50  49 N3        30.23S
LITCHFIELD     PTSUNNY   72  61  68 NE5       30.24R
BUFFALO        PTSUNNY   72  60  65 NE5       30.22F
MAPLE LAKE     PTSUNNY   73  62  70 N7        30.23S
HUTCHINSON     SUNNY     73  60  62 N7        30.24R
$$
MNZ037-044-045-052-053-301800-
   East Central Minnesota

CITY           SKY/WX    TMP DP  RH WIND       PRES   REMARKS
PRINCETON      CLOUDY    73  61  64 CALM      30.21F
MORA           MOSUNNY   72  54  53 NW5       30.22S
CAMBRIDGE      MOSUNNY   73  57  56 NW3       30.19F
RUSH CITY      CLOUDY    72  60  65 NE6       30.20F
MOOSE LAKE     SUNNY     70  54  56 NW6       30.19S
HINCKLEY       FAIR      72  54  53 N5        30.20F
CLOQUET        SUNNY     70  50  49 NW5       30.20F
MCGREGOR       SUNNY     70  52  52 NW7       30.22S
$$
MNZ071>073-080-081-089-090-097-098-301800-
   Southwest Minnesota

CITY           SKY/WX    TMP DP  RH WIND       PRES   REMARKS
MONTEVIDEO     PTSUNNY   75  63  64 E8        30.25S
GRANITE FALLS  MOSUNNY   75  62  64 NE8       30.25R
CANBY          MOSUNNY   73  61  64 N6        30.25S
MARSHALL       CLOUDY    70  66  87 E5        30.25R
REDWOOD FALLS  CLOUDY    74  63  68 NE8       30.23R
OLIVIA         CLOUDY    73  59  60 NE6       30.23R
WINDOM         CLOUDY    72  64  78 N7        30.25R
WORTHINGTON    CLOUDY    73  67  81 NE10      30.25S
JACKSON        PTSUNNY   72  63  73 NE7       30.25S
TRACY          CLOUDY    70  68  91 N6        30.25S
SLAYTON        CLOUDY    70  66  88 NE5       30.27R
$$
MNZ065>067-074>077-082>085-091>093-301800-
   South Central Minnesota

CITY           SKY/WX    TMP DP  RH WIND       PRES   REMARKS
NEW ULM        CLOUDY    72  68  88 N5        30.22F
ST JAMES       CLOUDY    72  66  83 NW3       30.24S
FAIRMONT       CLOUDY    73  66  78 N7        30.24S
GLENCOE        CLOUDY    73  64  73 N5        30.22R
FARIBAULT      CLOUDY    75  66  73 CALM      30.22R
OWATONNA       CLOUDY    73  66  78 N3        30.21S
WASECA         CLOUDY    73  64  73 N6        30.22F
ALBERT LEA     CLOUDY    73  66  78 NW3       30.22S
$$
MNZ078>079-086>088-094>096-301800-
   Southeast Minnesota

CITY           SKY/WX    TMP DP  RH WIND       PRES   REMARKS
ROCHESTER      CLOUDY    76  65  68 VRB3      30.21F
RED WING       PTSUNNY   77  66  69 NW5       30.16F
STANTON        CLOUDY    73  64  73 NE6       30.18F
DODGE CENTER   CLOUDY    75  64  69 N5        30.21F
WINONA         PTSUNNY   77  63  61 CALM      30.17F
AUSTIN         CLOUDY    75  64  69 N7        30.20F
PRESTON        CLOUDY    75  65  71 N6        30.20F
$$
ABBREVIATIONS USED IN REMARKS
   TC - TEMPERATURES IN CELSIUS
  WCI - WIND CHILL INDEX
   HX - HEAT INDEX
  VSB - VISIBILITY
$$



USA.gov is the U.S. government's official web portal to all federal, state and local government web resources and services.